• In Uzbekistan
  • List of Countries
  • For 7 days
  • Water Temperature
  • Satellite Maps
  • Weather Map
  • Weather Widgets
  • user-avatar
    Login

    Hourly Weather Guiyang

    Today, 20 September, Thursday

    Time Temperature Precipitation Wind Pressure Humidity
    00:00 +21°C° 0 mm 3 mps 662 mmHg 96%
    01:00 +21°C° 0 mm 3 mps 662 mmHg 96%
    02:00 +21°C° 0 mm 3 mps 662 mmHg 96%
    03:00 +21°C° 0 mm 3 mps 661 mmHg 95%
    04:00 +21°C° 0 mm 3 mps 661 mmHg 95%
    05:00 +21°C° 0 mm 3 mps 662 mmHg 94%
    06:00 +21°C° 0 mm 3 mps 662 mmHg 93%
    07:00 +22°C° 0 mm 3 mps 662 mmHg 93%
    08:00 +22°C° 0 mm 3 mps 662 mmHg 90%
    09:00 +23°C° 0 mm 4 mps 662 mmHg 87%
    10:00 +23°C° 0 mm 4 mps 662 mmHg 84%
    11:00 +25°C° 0 mm 4 mps 662 mmHg 82%
    12:00 +26°C° 0 mm 4 mps 662 mmHg 80%
    13:00 +26°C° 0 mm 4 mps 662 mmHg 78%
    14:00 +26°C° 0 mm 4 mps 661 mmHg 78%
    15:00 +26°C° 0 mm 4 mps 661 mmHg 78%
    16:00 +26°C° 0 mm 4 mps 661 mmHg 79%
    17:00 +25°C° 0 mm 3 mps 661 mmHg 84%
    18:00 +24°C° 0 mm 2 mps 661 mmHg 89%
    19:00 +23°C° 0 mm 2 mps 661 mmHg 94%
    20:00 +21°C° 0 mm 2 mps 661 mmHg 95%
    21:00 +21°C° 0 mm 2 mps 661 mmHg 95%
    22:00 +22°C° 0 mm 1 mps 662 mmHg 96%
    23:00 +21°C° 0.4 mm 1 mps 662 mmHg 96%

    Tomorrow, 21 September, Friday

    Time Temperature Precipitation Wind Pressure Humidity
    00:00 +21°C° 0.4 mm 1 mps 662 mmHg 97%
    01:00 +21°C° 0.4 mm 1 mps 662 mmHg 97%
    02:00 +21°C° 0.4 mm 1 mps 662 mmHg 97%
    03:00 +21°C° 0.4 mm 1 mps 661 mmHg 97%
    04:00 +21°C° 0.4 mm 1 mps 661 mmHg 98%
    05:00 +21°C° 0.1 mm 1 mps 662 mmHg 97%
    06:00 +22°C° 0.1 mm 1 mps 662 mmHg 96%
    07:00 +22°C° 0.1 mm 1 mps 662 mmHg 95%
    08:00 +23°C° 0.2 mm 1 mps 663 mmHg 90%
    09:00 +24°C° 0.2 mm 1 mps 663 mmHg 86%
    10:00 +25°C° 0.2 mm 2 mps 664 mmHg 82%
    11:00 +26°C° 0.4 mm 2 mps 663 mmHg 80%
    12:00 +26°C° 0.4 mm 2 mps 663 mmHg 78%
    13:00 +27°C° 0.4 mm 2 mps 663 mmHg 75%
    14:00 +27°C° 0.7 mm 2 mps 662 mmHg 77%
    15:00 +26°C° 0.7 mm 2 mps 662 mmHg 79%
    16:00 +26°C° 0.7 mm 2 mps 662 mmHg 80%
    17:00 +25°C° 1 mm 1 mps 662 mmHg 84%
    18:00 +24°C° 1 mm 1 mps 662 mmHg 88%
    19:00 +23°C° 1 mm 1 mps 662 mmHg 92%
    20:00 +22°C° 0.8 mm 1 mps 663 mmHg 93%
    21:00 +22°C° 0.8 mm 1 mps 663 mmHg 93%
    22:00 +22°C° 0.8 mm 1 mps 664 mmHg 94%
    23:00 +19°C° 0.2 mm 0 mps 663 mmHg 94%

    Day after tomorrow, 22 September, Saturday

    Time Temperature Precipitation Wind Pressure Humidity
    00:00 +19°C° 0.2 mm 0 mps 663 mmHg 95%
    01:00 +19°C° 0.2 mm 0 mps 663 mmHg 95%
    02:00 +19°C° 0 mm 0 mps 663 mmHg 95%
    03:00 +18°C° 0 mm 0 mps 663 mmHg 95%
    04:00 +18°C° 0 mm 0 mps 662 mmHg 95%
    05:00 +19°C° 0 mm 0 mps 663 mmHg 94%
    06:00 +19°C° 0 mm 0 mps 663 mmHg 93%
    07:00 +19°C° 0 mm 0 mps 663 mmHg 92%
    08:00 +23°C° 0 mm 1 mps 664 mmHg 84%
    09:00 +25°C° 0 mm 2 mps 665 mmHg 77%
    10:00 +26°C° 0 mm 2 mps 665 mmHg 70%
    11:00 +27°C° 0.4 mm 2 mps 665 mmHg 67%
    12:00 +27°C° 0.4 mm 2 mps 664 mmHg 64%
    13:00 +28°C° 0.4 mm 2 mps 664 mmHg 61%
    14:00 +28°C° 0.3 mm 2 mps 663 mmHg 64%
    15:00 +27°C° 0.3 mm 2 mps 663 mmHg 67%
    16:00 +27°C° 0.3 mm 1 mps 662 mmHg 70%
    17:00 +25°C° 0.1 mm 2 mps 663 mmHg 76%
    18:00 +23°C° 0.1 mm 2 mps 663 mmHg 83%
    19:00 +21°C° 0.1 mm 2 mps 663 mmHg 90%
    20:00 +20°C° 0.1 mm 2 mps 663 mmHg 92%
    21:00 +20°C° 0.1 mm 2 mps 664 mmHg 93%
    22:00 +21°C° 0.1 mm 1 mps 664 mmHg 95%
    23:00 +21°C° 0.2 mm 1 mps 664 mmHg 96%

    23 September, Sunday

    Time Temperature Precipitation Wind Pressure Humidity
    00:00 +21°C° 0.2 mm 1 mps 664 mmHg 96%
    01:00 +20°C° 0.2 mm 1 mps 664 mmHg 97%
    02:00 +20°C° 0.2 mm 1 mps 663 mmHg 97%
    03:00 +20°C° 0.2 mm 1 mps 663 mmHg 97%
    04:00 +20°C° 0.2 mm 1 mps 663 mmHg 97%
    05:00 +20°C° 0.1 mm 1 mps 663 mmHg 96%
    06:00 +21°C° 0.1 mm 1 mps 664 mmHg 95%
    07:00 +21°C° 0.1 mm 1 mps 664 mmHg 94%
    08:00 +22°C° 0.1 mm 1 mps 664 mmHg 90%
    09:00 +23°C° 0.1 mm 1 mps 665 mmHg 86%
    10:00 +24°C° 0.1 mm 1 mps 665 mmHg 83%
    11:00 +24°C° 0.3 mm 1 mps 664 mmHg 81%
    12:00 +25°C° 0.3 mm 1 mps 664 mmHg 79%
    13:00 +25°C° 0.3 mm 2 mps 663 mmHg 77%
    14:00 +25°C° 0.6 mm 2 mps 663 mmHg 79%
    15:00 +24°C° 0.6 mm 2 mps 662 mmHg 81%
    16:00 +24°C° 0.6 mm 3 mps 661 mmHg 84%
    17:00 +22°C° 0.2 mm 3 mps 662 mmHg 87%
    18:00 +21°C° 0.2 mm 3 mps 662 mmHg 90%
    19:00 +20°C° 0.2 mm 3 mps 662 mmHg 94%
    20:00 +20°C° 0.1 mm 3 mps 662 mmHg 94%
    21:00 +19°C° 0.1 mm 2 mps 663 mmHg 95%
    22:00 +19°C° 0.1 mm 2 mps 663 mmHg 96%
    23:00 +19°C° 0 mm 2 mps 662 mmHg 96%

    24 September, Monday

    Time Temperature Precipitation Wind Pressure Humidity
    00:00 +19°C° 0 mm 2 mps 662 mmHg 97%
    01:00 +18°C° 0 mm 2 mps 661 mmHg 97%
    02:00 +18°C° 0 mm 2 mps 661 mmHg 97%
    03:00 +19°C° 0 mm 2 mps 661 mmHg 97%
    04:00 +19°C° 0 mm 2 mps 661 mmHg 96%
    05:00 +19°C° 0.1 mm 2 mps 661 mmHg 96%
    06:00 +19°C° 0.1 mm 2 mps 662 mmHg 96%
    07:00 +19°C° 0.1 mm 2 mps 662 mmHg 95%
    08:00 +20°C° 0.1 mm 3 mps 662 mmHg 92%
    09:00 +21°C° 0.1 mm 3 mps 662 mmHg 90%
    10:00 +22°C° 0.1 mm 4 mps 663 mmHg 87%
    11:00 +22°C° 0.8 mm 4 mps 662 mmHg 86%
    12:00 +22°C° 0.8 mm 4 mps 662 mmHg 85%
    13:00 +22°C° 0.8 mm 4 mps 661 mmHg 84%
    14:00 +21°C° 1.4 mm 4 mps 661 mmHg 87%
    15:00 +20°C° 1.4 mm 3 mps 660 mmHg 90%
    16:00 +19°C° 1.4 mm 3 mps 660 mmHg 92%
    17:00 +18°C° 1 mm 2 mps 660 mmHg 93%
    18:00 +17°C° 1 mm 2 mps 660 mmHg 94%
    19:00 +17°C° 1 mm 2 mps 661 mmHg 95%
    20:00 +17°C° 0.7 mm 2 mps 661 mmHg 95%
    21:00 +16°C° 0.7 mm 2 mps 661 mmHg 96%
    22:00 +16°C° 0.7 mm 2 mps 662 mmHg 96%
    23:00 +16°C° 1 mm 2 mps 661 mmHg 96%

    25 September, Tuesday

    Time Temperature Precipitation Wind Pressure Humidity
    00:00 +16°C° 1 mm 2 mps 661 mmHg 96%
    01:00 +16°C° 1 mm 2 mps 660 mmHg 97%
    02:00 +16°C° 2.3 mm 2 mps 660 mmHg 97%
    03:00 +16°C° 2.3 mm 2 mps 660 mmHg 97%
    04:00 +16°C° 2.3 mm 2 mps 660 mmHg 97%
    05:00 +16°C° 4.1 mm 2 mps 660 mmHg 97%
    06:00 +16°C° 4.1 mm 2 mps 660 mmHg 97%
    07:00 +16°C° 4.1 mm 2 mps 661 mmHg 97%
    08:00 +16°C° 2.9 mm 2 mps 661 mmHg 97%
    09:00 +16°C° 2.9 mm 2 mps 661 mmHg 96%
    10:00 +16°C° 2.9 mm 2 mps 661 mmHg 96%
    11:00 +16°C° 1.1 mm 2 mps 661 mmHg 96%
    12:00 +16°C° 1.1 mm 2 mps 660 mmHg 96%
    13:00 +16°C° 1.1 mm 2 mps 660 mmHg 96%
    14:00 +16°C° 0.5 mm 2 mps 660 mmHg 96%
    15:00 +16°C° 0.5 mm 2 mps 660 mmHg 96%
    16:00 +16°C° 0.5 mm 3 mps 660 mmHg 96%
    17:00 +15°C° 0.1 mm 2 mps 660 mmHg 96%
    18:00 +15°C° 0.1 mm 2 mps 660 mmHg 96%
    19:00 +15°C° 0.1 mm 2 mps 660 mmHg 96%
    20:00 +15°C° 0.5 mm 2 mps 661 mmHg 96%
    21:00 +15°C° 0.5 mm 2 mps 661 mmHg 97%
    22:00 +15°C° 0.5 mm 2 mps 661 mmHg 97%
    23:00 +15°C° 1 mm 2 mps 661 mmHg 97%
    Show more